Regional Weather Roundup
Issued by NWS

Home | Current Version | Previous Version | Graphics & Text | Print | Product List | Glossary On
Versions: 1 2 3 4 5 6 7 8 9 10 11 12 13 14 15 16 17 18 19 20 21 22 23 24 25 26 27 28 29 30 31 32 33 34 35 36 37 38 39 40 41 42 43 44 45 46 47 48 49 50
000
ASUS45 KBOU 240810
RWRCO

WEATHER ROUNDUP FOR COLORADO
NATIONAL WEATHER SERVICE DENVER/BOULDER CO
200 AM MDT TUE APR 24 2018

NOTE: "FAIR" INDICATES FEW OR NO CLOUDS BELOW 12000 FEET WITH NO
SIGNIFICANT WEATHER AND/OR OBSTRUCTIONS TO VISIBILITY.

COZ001>005-013-030-031-240900-
...NORTHWEST COLORADO...

CITY           SKY/WX    TMP DP  RH WIND       PRES   REMARKS
CRAIG          FAIR      39  32  76 SW12      30.27R
HAYDEN         FAIR      39  31  72 W12       30.26R
MEEKER         FAIR      43  31  62 NE8       30.24S
RANGELY        FAIR      43  29  58 NE22G30   30.24R
RABBIT EARS PA FAIR      30  28  93 W8        30.31S WCI  23
STEAMBOAT SPGS FAIR      39  32  76 S6        30.24R
WALDEN         CLOUDY    32  28  86 N12       30.29S WCI  23
$$

COZ006>008-011-240900-
...WEST CENTRAL VALLEYS...

CITY           SKY/WX    TMP DP  RH WIND       PRES   REMARKS
GRAND JUNCTION CLOUDY    61  26  26 NW10      30.13R
MONTROSE       CLOUDY    56  34  43 NE14      30.19R
EAGLE          CLOUDY    52  30  43 W6        30.22R
RIFLE          FAIR      53  29  39 NW22G29   30.18R
DELTA          CLOUDY    60  35  38 E12       30.17R
NUCLA          FAIR      59  25  27 N6        30.20R
$$

COZ017>023-064>068-240900-
...SOUTHWEST COLORADO...

CITY           SKY/WX    TMP DP  RH WIND       PRES   REMARKS
DURANGO        FAIR      42  15  33 N3        30.13F
CORTEZ         FAIR      48  19  31 E5        30.12R
PAGOSA SPRINGS FAIR      37  15  39 CALM      30.20S
TELLURIDE      FAIR      45  28  51 W3        30.30F
WOLF CREEK PAS FAIR      34  10  37 SW10      30.42F WCI  26
$$

COZ009-010-012-014-032>034-037-058>063-240900-
...CENTRAL COLORADO...

CITY           SKY/WX    TMP DP  RH WIND       PRES   REMARKS
ASPEN          LGT RAIN  41  35  79 N6        30.29R
BUENA VISTA    FAIR      46  28  47 NW14      30.22S
COPPER MTN     NOT AVBL
BERTHOUD PASS  CLOUDY    23  14  68 W7G21     30.38S WCI  15
COTTONWOOD PAS FAIR      45  27  49 NW5       30.29S
GUNNISON       MOCLDY    45  30  55 N7        30.25R
GRANBY         CLOUDY    40  35  80 CALM      30.26R
KREMMLING      CLOUDY    46  37  71 CALM      30.24F
LEADVILLE      MOCLDY    34  27  75 NW8       30.31F WCI  27
MONARCH PASS   FAIR      32  19  59 W23       30.47S WCI  19
SALIDA         FAIR      49  24  38 W5        30.27R
SUNLIGHT       CLOUDY    32  23  69 W6        30.38R WCI  26
WILKERSON PASS HVY SNOW  32  30  93 E5        30.37F VSB<1/4 WCI  27
$$

COZ069>075-240900-
...SAN LUIS VALLEY/SANGRE DE CRISTO MOUNTAINS...

CITY           SKY/WX    TMP DP  RH WIND       PRES   REMARKS
ALAMOSA        FAIR      40  19  43 SW6       30.17R
DEL NORTE      FAIR      40  16  37 W13       30.20S
LA VETA PASS   FAIR      41  21  45 NE7       30.42R
SAGUACHE       NOT AVBL
$$

COZ035-036-038>040-240900-
...NORTHERN COLORADO FRONT RANGE...

CITY           SKY/WX    TMP DP  RH WIND       PRES   REMARKS
DENVER INTL AP CLOUDY    37  31  78 N13       30.32R
AURORA         NOT AVBL
FRONT RANGE AP LGT RAIN  37  33  85 N20       30.33R
ERIE MUNI ARPT LGT SNOW  34  33  93 CALM      30.39R
BOULDER MUN AP LGT SNOW  34  34 100 SE5       30.32S WCI  30
CENTENNIAL     CLOUDY    37  35  92 N8        30.32S
BROOMFIELD     LGT RAIN  36  32  87 NE8       30.33R
FORT COLLINS   LGT RAIN  40  31  70 NE14      30.31R
LONGMONT       MIX PCPN  40  34  79 SE6       30.34R
$$

COZ041-046-047-076>085-087-088-240900-
...PIKES PEAK/PALMER DIVIDE AND SOUTHERN FOOTHILLS...

CITY           SKY/WX    TMP DP  RH WIND       PRES   REMARKS
COLO. SPRINGS  CLOUDY    41  35  79 NW25G43   30.22R
A. F. ACADEMY  CLOUDY    39  36  87 N23G32    30.25R
SCHRIEVER AFB  NOT AVBL
CHEYENNE MTN   MOCLDY    41  36  81 NW18G32   30.15S
ELLICOTT       CLOUDY   N/A N/A N/A N35G43    30.18S
FALCON         CLOUDY    36  35  95 N31G40    30.23S
FORT CARSON    FAIR      44  37  76 N33G45    30.15S
LIMON          CLOUDY    36  35  96 N26G41    30.25R
MONUMENT HILL  FOG       32  32 100 N17       30.32R VSB 1/4 WCI  21
CANON CITY     FAIR      52  43  71 SW8       30.13R
WALSENBURG     NOT AVBL
TRINIDAD       FAIR      49  30  48 NW14G24   30.09R
$$

COZ042>045-048>051-090-091-240900-
...NORTHEAST COLORADO...

CITY           SKY/WX    TMP DP  RH WIND       PRES   REMARKS
GREELEY ARPT   LGT RAIN  39  30  70 N20       30.31R
AKRON          CLOUDY    37  34  89 N25G38    30.25R
BURLINGTON     HVY RAIN  48  46  93 N10       30.21R FOG
WRAY           CLOUDY    43  37  81 N21G28    30.23R
YUMA           CLOUDY    37  36  93 N18       30.23R
STERLING       NOT AVBL
HOLYOKE        CLOUDY    41  36  81 N21G30    30.24F
FORT MORGAN    LGT RAIN  38  31  76 N23G36    30.28R
$$

COZ086-089-092>099-240900-
...SOUTHEAST COLORADO...

CITY           SKY/WX    TMP DP  RH WIND       PRES   REMARKS
PUEBLO         FAIR      48  38  68 N35G51    30.12R
LA JUNTA       FAIR      55  43  63 N17       30.05R
LAMAR          FAIR      51  42  71 NE13      30.02R
SPRINGFIELD      N/A     46  42  86 S6        30.05S
$$




USA.gov is the U.S. government's official web portal to all federal, state and local government web resources and services.